Saint Bonnet de Bellac- Haute Vienne - France
Donnes mto: samedi, 14/04/2012
Date Horaire Temp. E. Hum. E. P.atmo. Pluie Vent Direction Direction Ensoleilleme Solaire P. de rose Temp au vent Rafales
14/04/2012 00:00 7,1 C 81 % 1003,8 hPa 0,0 mm 0,0 km/h (0 Bft) S-SO 202 0 min 0 W/m 4,1 C 7,1 C 0,0 km/h (0 Bft)
14/04/2012 00:10 7,1 C 81 % 1003,7 hPa 0,0 mm 0,0 km/h (0 Bft) S-SO 202 0 min 0 W/m 4,1 C 7,1 C 0,0 km/h (0 Bft)
14/04/2012 00:20 6,9 C 82 % 1003,8 hPa 0,0 mm 0,0 km/h (0 Bft) S-SO 202 0 min 0 W/m 4,0 C 6,9 C 0,0 km/h (0 Bft)
14/04/2012 00:30 6,8 C 82 % 1003,6 hPa 0,0 mm 0,7 km/h (0 Bft) SO 225 0 min 0 W/m 3,9 C 6,8 C 3,6 km/h (1 Bft)
14/04/2012 00:40 6,7 C 82 % 1003,6 hPa 0,0 mm 0,0 km/h (0 Bft) SO 225 0 min 0 W/m 3,8 C 6,7 C 0,0 km/h (0 Bft)
14/04/2012 00:50 6,6 C 82 % 1003,5 hPa 0,0 mm 0,0 km/h (0 Bft) SO 225 0 min 0 W/m 3,8 C 6,6 C 2,9 km/h (1 Bft)
14/04/2012 01:00 6,3 C 83 % 1003,5 hPa 0,0 mm 0,0 km/h (0 Bft) SO 225 0 min 0 W/m 3,6 C 6,3 C 0,0 km/h (0 Bft)
14/04/2012 01:10 6,1 C 83 % 1003,5 hPa 0,0 mm 0,7 km/h (0 Bft) SO 225 0 min 0 W/m 3,4 C 6,1 C 0,7 km/h (0 Bft)
14/04/2012 01:20 5,7 C 83 % 1003,5 hPa 0,0 mm 0,0 km/h (0 Bft) SO 225 0 min 0 W/m 3,0 C 5,7 C 0,0 km/h (0 Bft)
14/04/2012 01:30 5,4 C 83 % 1003,5 hPa 0,0 mm 0,4 km/h (0 Bft) S 180 0 min 0 W/m 2,7 C 5,4 C 0,4 km/h (0 Bft)
14/04/2012 01:40 5,1 C 84 % 1003,4 hPa 0,0 mm 1,1 km/h (1 Bft) S-SO 202 0 min 0 W/m 2,6 C 5,1 C 4,0 km/h (1 Bft)
14/04/2012 01:50 4,9 C 86 % 1003,3 hPa 0,0 mm 1,8 km/h (1 Bft) S-SO 202 0 min 0 W/m 2,8 C 4,9 C 3,6 km/h (1 Bft)
14/04/2012 02:00 4,9 C 87 % 1003,3 hPa 0,0 mm 0,4 km/h (0 Bft) SO 225 0 min 0 W/m 2,9 C 4,9 C 3,2 km/h (1 Bft)
14/04/2012 02:10 4,8 C 87 % 1003,2 hPa 0,0 mm 0,0 km/h (0 Bft) SO 225 0 min 0 W/m 2,8 C 4,8 C 0,0 km/h (0 Bft)
14/04/2012 02:20 4,5 C 87 % 1003,1 hPa 0,0 mm 0,0 km/h (0 Bft) SO 225 0 min 0 W/m 2,5 C 4,5 C 0,0 km/h (0 Bft)
14/04/2012 02:30 4,4 C 88 % 1003,1 hPa 0,0 mm 0,0 km/h (0 Bft) SO 225 0 min 0 W/m 2,6 C 4,4 C 0,0 km/h (0 Bft)
14/04/2012 02:40 4,3 C 88 % 1003,1 hPa 0,0 mm 0,0 km/h (0 Bft) SO 225 0 min 0 W/m 2,5 C 4,3 C 1,4 km/h (1 Bft)
14/04/2012 02:50 4,0 C 88 % 1003,1 hPa 0,0 mm 0,0 km/h (0 Bft) S-SO 202 0 min 0 W/m 2,2 C 4,0 C 0,0 km/h (0 Bft)
14/04/2012 03:02 3,8 C 88 % 1002,9 hPa 0,0 mm 0,0 km/h (0 Bft) S-SO 202 0 min 0 W/m 2,0 C 3,8 C 0,0 km/h (0 Bft)
14/04/2012 03:10 3,5 C 88 % 1002,8 hPa 0,0 mm 0,0 km/h (0 Bft) S-SO 202 0 min 0 W/m 1,7 C 3,5 C 0,0 km/h (0 Bft)
14/04/2012 03:20 3,4 C 88 % 1002,7 hPa 0,0 mm 0,0 km/h (0 Bft) S-SO 202 0 min 0 W/m 1,6 C 3,4 C 0,0 km/h (0 Bft)
14/04/2012 03:30 3,2 C 88 % 1002,7 hPa 0,0 mm 0,0 km/h (0 Bft) S-SO 202 0 min 0 W/m 1,4 C 3,2 C 0,0 km/h (0 Bft)
14/04/2012 03:40 3,0 C 88 % 1002,6 hPa 0,0 mm 0,0 km/h (0 Bft) S-SO 202 0 min 0 W/m 1,2 C 3,0 C 0,0 km/h (0 Bft)
14/04/2012 03:50 2,9 C 89 % 1002,5 hPa 0,0 mm 0,0 km/h (0 Bft) S-SO 202 0 min 0 W/m 1,3 C 2,9 C 0,0 km/h (0 Bft)
14/04/2012 04:00 2,8 C 88 % 1002,4 hPa 0,0 mm 0,0 km/h (0 Bft) S-SO 202 0 min 0 W/m 1,0 C 2,8 C 0,0 km/h (0 Bft)
14/04/2012 04:10 2,8 C 89 % 1002,4 hPa 0,0 mm 0,0 km/h (0 Bft) S-SO 202 0 min 0 W/m 1,2 C 2,8 C 0,0 km/h (0 Bft)
14/04/2012 04:20 2,6 C 89 % 1002,3 hPa 0,0 mm 0,0 km/h (0 Bft) S-SO 202 0 min 0 W/m 1,0 C 2,6 C 0,0 km/h (0 Bft)
14/04/2012 04:30 2,5 C 90 % 1002,3 hPa 0,0 mm 0,0 km/h (0 Bft) S-SO 202 0 min 0 W/m 1,0 C 2,5 C 0,0 km/h (0 Bft)
14/04/2012 04:40 2,5 C 90 % 1002,3 hPa 0,0 mm 0,0 km/h (0 Bft) S-SO 202 0 min 0 W/m 1,0 C 2,5 C 2,9 km/h (1 Bft)
14/04/2012 04:50 2,6 C 91 % 1002,3 hPa 0,0 mm 0,0 km/h (0 Bft) S-SO 202 0 min 0 W/m 1,3 C 2,6 C 0,0 km/h (0 Bft)
14/04/2012 05:00 2,6 C 91 % 1002,2 hPa 0,0 mm 0,7 km/h (0 Bft) S-SO 202 0 min 0 W/m 1,3 C 2,6 C 3,2 km/h (1 Bft)
14/04/2012 05:10 2,6 C 91 % 1002,1 hPa 0,0 mm 0,0 km/h (0 Bft) S-SO 202 0 min 0 W/m 1,3 C 2,6 C 0,0 km/h (0 Bft)
14/04/2012 05:20 2,6 C 91 % 1002,0 hPa 0,0 mm 0,0 km/h (0 Bft) S-SO 202 0 min 0 W/m 1,3 C 2,6 C 0,0 km/h (0 Bft)
14/04/2012 05:30 2,6 C 91 % 1001,9 hPa 0,0 mm 0,0 km/h (0 Bft) S-SO 202 0 min 0 W/m 1,3 C 2,6 C 0,0 km/h (0 Bft)
14/04/2012 05:40 2,6 C 91 % 1001,9 hPa 0,0 mm 0,0 km/h (0 Bft) S-SO 202 0 min 0 W/m 1,3 C 2,6 C 0,0 km/h (0 Bft)
14/04/2012 05:50 2,6 C 91 % 1001,7 hPa 0,0 mm 0,0 km/h (0 Bft) S-SO 202 0 min 0 W/m 1,3 C 2,6 C 0,0 km/h (0 Bft)
14/04/2012 06:00 2,6 C 91 % 1001,7 hPa 0,0 mm 0,0 km/h (0 Bft) S-SO 202 0 min 0 W/m 1,3 C 2,6 C 0,0 km/h (0 Bft)
14/04/2012 06:10 2,6 C 91 % 1001,6 hPa 0,0 mm 0,0 km/h (0 Bft) S-SO 202 0 min 0 W/m 1,3 C 2,6 C 0,0 km/h (0 Bft)
14/04/2012 06:20 2,4 C 91 % 1001,6 hPa 0,0 mm 0,0 km/h (0 Bft) S-SO 202 0 min 0 W/m 1,1 C 2,4 C 0,0 km/h (0 Bft)
14/04/2012 06:30 2,3 C 91 % 1001,6 hPa 0,0 mm 0,0 km/h (0 Bft) S-SO 202 0 min 0 W/m 1,0 C 2,3 C 0,0 km/h (0 Bft)
14/04/2012 06:40 2,1 C 91 % 1001,6 hPa 0,0 mm 0,0 km/h (0 Bft) S-SO 202 0 min 0 W/m 0,8 C 2,1 C 0,0 km/h (0 Bft)
14/04/2012 06:50 2,1 C 92 % 1001,6 hPa 0,0 mm 0,0 km/h (0 Bft) S-SO 202 0 min 0 W/m 0,9 C 2,1 C 0,0 km/h (0 Bft)
14/04/2012 07:00 2,0 C 92 % 1001,6 hPa 0,0 mm 0,0 km/h (0 Bft) S-SO 202 0 min 0 W/m 0,8 C 2,0 C 0,0 km/h (0 Bft)
14/04/2012 07:10 1,8 C 91 % 1001,6 hPa 0,0 mm 0,0 km/h (0 Bft) S-SO 202 0 min 0 W/m 0,5 C 1,8 C 0,0 km/h (0 Bft)
14/04/2012 07:20 1,6 C 91 % 1001,7 hPa 0,0 mm 1,1 km/h (1 Bft) E 90 0 min 0 W/m 0,3 C 1,6 C 4,3 km/h (1 Bft)
14/04/2012 07:30 1,5 C 90 % 1001,7 hPa 0,0 mm 5,4 km/h (2 Bft) E 90 2 min 0 W/m 0,0 C -0,1 C 6,8 km/h (2 Bft)
14/04/2012 07:40 1,3 C 90 % 1001,7 hPa 0,0 mm 3,2 km/h (1 Bft) SE 135 2 min 0 W/m -0,2 C 1,3 C 4,0 km/h (1 Bft)
14/04/2012 07:50 1,3 C 91 % 1001,8 hPa 0,0 mm 1,1 km/h (1 Bft) E-SE 112 2 min 0 W/m -0,0 C 1,3 C 1,4 km/h (1 Bft)
14/04/2012 08:00 1,5 C 91 % 1001,9 hPa 0,0 mm 1,8 km/h (1 Bft) E-SE 112 2 min 0 W/m 0,2 C 1,5 C 4,3 km/h (1 Bft)
14/04/2012 08:10 1,8 C 91 % 1001,9 hPa 0,0 mm 0,4 km/h (0 Bft) SE 135 2 min 0 W/m 0,5 C 1,8 C 3,2 km/h (1 Bft)
14/04/2012 08:20 2,0 C 91 % 1002,1 hPa 0,0 mm 0,0 km/h (0 Bft) SE 135 2 min 0 W/m 0,7 C 2,0 C 3,2 km/h (1 Bft)
14/04/2012 08:30 2,3 C 92 % 1002,2 hPa 0,0 mm 0,0 km/h (0 Bft) SE 135 2 min 0 W/m 1,1 C 2,3 C 0,0 km/h (0 Bft)
14/04/2012 08:40 2,5 C 92 % 1002,2 hPa 0,0 mm 0,0 km/h (0 Bft) SE 135 2 min 0 W/m 1,3 C 2,5 C 0,0 km/h (0 Bft)
14/04/2012 08:50 2,8 C 92 % 1002,2 hPa 0,0 mm 0,0 km/h (0 Bft) SE 135 2 min 0 W/m 1,6 C 2,8 C 0,0 km/h (0 Bft)
14/04/2012 09:00 3,1 C 92 % 1002,2 hPa 0,0 mm 0,0 km/h (0 Bft) SE 135 2 min 0 W/m 1,9 C 3,1 C 0,0 km/h (0 Bft)
14/04/2012 09:10 3,5 C 92 % 1002,2 hPa 0,0 mm 0,0 km/h (0 Bft) SE 135 2 min 0 W/m 2,3 C 3,5 C 0,0 km/h (0 Bft)
14/04/2012 09:20 3,8 C 92 % 1002,3 hPa 0,0 mm 0,0 km/h (0 Bft) SE 135 2 min 0 W/m 2,6 C 3,8 C 0,0 km/h (0 Bft)
14/04/2012 09:30 4,1 C 92 % 1002,2 hPa 0,0 mm 0,0 km/h (0 Bft) SE 135 2 min 0 W/m 2,9 C 4,1 C 0,0 km/h (0 Bft)
14/04/2012 09:40 4,4 C 92 % 1002,1 hPa 0,0 mm 0,0 km/h (0 Bft) S-SO 202 2 min 0 W/m 3,2 C 4,4 C 0,0 km/h (0 Bft)
14/04/2012 09:50 4,8 C 93 % 1002,2 hPa 0,0 mm 0,0 km/h (0 Bft) SO 225 2 min 0 W/m 3,8 C 4,8 C 0,0 km/h (0 Bft)
14/04/2012 10:00 5,3 C 93 % 1002,3 hPa 0,0 mm 0,0 km/h (0 Bft) O-SO 247 2 min 0 W/m 4,3 C 5,3 C 0,0 km/h (0 Bft)
14/04/2012 10:10 5,6 C 93 % 1002,3 hPa 0,0 mm 2,5 km/h (1 Bft) O 270 2 min 0 W/m 4,6 C 5,6 C 6,5 km/h (2 Bft)
14/04/2012 10:20 6,3 C 93 % 1002,4 hPa 0,0 mm 0,0 km/h (0 Bft) S-SO 202 2 min 0 W/m 5,3 C 6,3 C 0,0 km/h (0 Bft)
14/04/2012 10:30 6,9 C 93 % 1002,4 hPa 0,0 mm 0,7 km/h (0 Bft) NO 315 2 min 0 W/m 5,8 C 6,9 C 4,0 km/h (1 Bft)
14/04/2012 10:40 7,4 C 92 % 1002,5 hPa 0,0 mm 2,5 km/h (1 Bft) O-SO 247 2 min 0 W/m 6,2 C 7,4 C 4,0 km/h (1 Bft)
14/04/2012 10:50 8,1 C 90 % 1002,5 hPa 0,0 mm 0,4 km/h (0 Bft) O-NO 292 2 min 0 W/m 6,6 C 8,1 C 3,2 km/h (1 Bft)
14/04/2012 11:00 9,0 C 86 % 1002,5 hPa 0,0 mm 2,5 km/h (1 Bft) O 270 2 min 0 W/m 6,8 C 9,0 C 3,6 km/h (1 Bft)
14/04/2012 11:10 9,8 C 85 % 1002,5 hPa 0,0 mm 3,6 km/h (1 Bft) N-NO 337 2 min 0 W/m 7,4 C 9,8 C 3,6 km/h (1 Bft)
14/04/2012 11:20 10,6 C 82 % 1002,5 hPa 0,0 mm 0,7 km/h (0 Bft) O 270 2 min 0 W/m 7,7 C 10,6 C 0,7 km/h (0 Bft)
14/04/2012 11:30 11,4 C 76 % 1002,5 hPa 0,0 mm 0,0 km/h (0 Bft) SO 225 2 min 0 W/m 7,3 C 11,4 C 0,0 km/h (0 Bft)
14/04/2012 11:40 11,8 C 76 % 1002,6 hPa 0,0 mm 0,0 km/h (0 Bft) E-NE 67 2 min 0 W/m 7,7 C 11,8 C 0,0 km/h (0 Bft)
14/04/2012 11:50 12,3 C 73 % 1002,5 hPa 0,0 mm 1,4 km/h (1 Bft) N-NE 22 2 min 0 W/m 7,6 C 12,3 C 4,3 km/h (1 Bft)
14/04/2012 12:00 12,5 C 72 % 1002,5 hPa 0,0 mm 8,3 km/h (2 Bft) NO 315 2 min 0 W/m 7,6 C 12,5 C 11,2 km/h (2 Bft)
14/04/2012 12:10 12,3 C 70 % 1002,4 hPa 0,0 mm 0,4 km/h (0 Bft) NO 315 2 min 0 W/m 7,0 C 12,3 C 3,6 km/h (1 Bft)
14/04/2012 12:20 12,2 C 70 % 1002,3 hPa 0,0 mm 0,7 km/h (0 Bft) NO 315 2 min 0 W/m 6,9 C 12,2 C 4,0 km/h (1 Bft)
14/04/2012 12:30 12,1 C 72 % 1002,2 hPa 0,0 mm 6,8 km/h (2 Bft) NE 45 2 min 0 W/m 7,2 C 12,1 C 9,7 km/h (2 Bft)
14/04/2012 12:40 12,4 C 71 % 1002,2 hPa 0,0 mm 3,2 km/h (1 Bft) NO 315 2 min 0 W/m 7,3 C 12,4 C 4,0 km/h (1 Bft)
14/04/2012 12:50 12,3 C 70 % 1002,2 hPa 0,0 mm 1,4 km/h (1 Bft) NE 45 2 min 0 W/m 7,0 C 12,3 C 6,8 km/h (2 Bft)
14/04/2012 13:00 12,1 C 69 % 1002,1 hPa 0,0 mm 1,1 km/h (1 Bft) N 360 2 min 0 W/m 6,6 C 12,1 C 4,3 km/h (1 Bft)
14/04/2012 13:10 12,3 C 69 % 1002,1 hPa 0,0 mm 4,0 km/h (1 Bft) N 360 2 min 0 W/m 6,8 C 12,3 C 7,2 km/h (2 Bft)
14/04/2012 13:20 12,8 C 65 % 1002,1 hPa 0,0 mm 0,0 km/h (0 Bft) N-NE 22 2 min 0 W/m 6,4 C 12,8 C 0,0 km/h (0 Bft)
14/04/2012 13:30 13,6 C 64 % 1001,9 hPa 0,0 mm 4,0 km/h (1 Bft) N 360 2 min 0 W/m 6,9 C 13,6 C 10,8 km/h (2 Bft)
14/04/2012 13:40 14,1 C 60 % 1002,0 hPa 0,0 mm 5,0 km/h (1 Bft) N 360 2 min 0 W/m 6,5 C 14,1 C 6,8 km/h (2 Bft)
14/04/2012 13:50 14,4 C 59 % 1002,0 hPa 0,0 mm 0,0 km/h (0 Bft) N 360 2 min 0 W/m 6,5 C 14,4 C 3,6 km/h (1 Bft)
14/04/2012 14:00 14,4 C 57 % 1001,9 hPa 0,0 mm 5,0 km/h (1 Bft) E-NE 67 2 min 0 W/m 6,0 C 14,4 C 7,6 km/h (2 Bft)
14/04/2012 14:10 13,9 C 55 % 1001,8 hPa 0,0 mm 4,3 km/h (1 Bft) E-NE 67 2 min 0 W/m 5,0 C 13,9 C 9,0 km/h (2 Bft)
14/04/2012 14:20 14,1 C 56 % 1001,7 hPa 0,0 mm 2,5 km/h (1 Bft) E-NE 67 2 min 0 W/m 5,5 C 14,1 C 3,6 km/h (1 Bft)
14/04/2012 14:30 14,2 C 55 % 1001,7 hPa 0,0 mm 3,2 km/h (1 Bft) NE 45 2 min 0 W/m 5,3 C 14,2 C 11,5 km/h (2 Bft)
14/04/2012 14:40 14,1 C 54 % 1001,6 hPa 0,0 mm 0,0 km/h (0 Bft) N-NE 22 2 min 0 W/m 4,9 C 14,1 C 0,0 km/h (0 Bft)
14/04/2012 14:50 14,4 C 54 % 1001,5 hPa 0,0 mm 6,5 km/h (2 Bft) N-NE 22 2 min 0 W/m 5,2 C 14,4 C 7,9 km/h (2 Bft)
14/04/2012 15:00 14,5 C 54 % 1001,5 hPa 0,0 mm 1,4 km/h (1 Bft) N-NO 337 2 min 0 W/m 5,3 C 14,5 C 3,2 km/h (1 Bft)
14/04/2012 15:10 14,9 C 50 % 1001,5 hPa 0,0 mm 5,4 km/h (2 Bft) N 360 2 min 0 W/m 4,6 C 14,9 C 7,9 km/h (2 Bft)
14/04/2012 15:20 15,1 C 50 % 1001,3 hPa 0,0 mm 0,0 km/h (0 Bft) N-NE 22 2 min 0 W/m 4,8 C 15,1 C 0,0 km/h (0 Bft)
14/04/2012 15:30 15,2 C 49 % 1001,2 hPa 0,0 mm 5,4 km/h (2 Bft) N-NE 22 2 min 0 W/m 4,6 C 15,2 C 9,7 km/h (2 Bft)
14/04/2012 15:40 15,4 C 50 % 1001,2 hPa 0,0 mm 2,5 km/h (1 Bft) NO 315 2 min 0 W/m 5,0 C 15,4 C 4,0 km/h (1 Bft)
14/04/2012 15:50 15,6 C 45 % 1001,2 hPa 0,0 mm 5,4 km/h (2 Bft) O-NO 292 2 min 0 W/m 3,7 C 15,6 C 8,6 km/h (2 Bft)
14/04/2012 16:00 15,5 C 47 % 1001,3 hPa 0,0 mm 0,7 km/h (0 Bft) O-NO 292 2 min 0 W/m 4,2 C 15,5 C 3,6 km/h (1 Bft)
14/04/2012 16:10 15,7 C 46 % 1001,1 hPa 0,0 mm 2,5 km/h (1 Bft) O 270 2 min 0 W/m 4,1 C 15,7 C 4,3 km/h (1 Bft)
14/04/2012 16:20 15,9 C 49 % 1001,1 hPa 0,0 mm 5,4 km/h (2 Bft) NO 315 2 min 0 W/m 5,2 C 15,9 C 5,4 km/h (2 Bft)
14/04/2012 16:30 15,8 C 49 % 1001,0 hPa 0,0 mm 3,2 km/h (1 Bft) N-NE 22 2 min 0 W/m 5,1 C 15,8 C 3,2 km/h (1 Bft)
14/04/2012 16:40 15,5 C 49 % 1001,1 hPa 0,0 mm 5,8 km/h (2 Bft) NO 315 2 min 0 W/m 4,8 C 15,5 C 10,4 km/h (2 Bft)
14/04/2012 16:50 14,9 C 51 % 1001,2 hPa 0,0 mm 4,7 km/h (1 Bft) NE 45 2 min 0 W/m 4,9 C 14,9 C 8,6 km/h (2 Bft)
14/04/2012 17:00 14,2 C 53 % 1001,3 hPa 0,0 mm 6,8 km/h (2 Bft) N-NE 22 2 min 0 W/m 4,8 C 14,2 C 14,0 km/h (3 Bft)
14/04/2012 17:10 13,4 C 56 % 1001,2 hPa 0,0 mm 4,7 km/h (1 Bft) N-NE 22 2 min 0 W/m 4,8 C 13,4 C 13,3 km/h (3 Bft)
14/04/2012 17:20 12,9 C 57 % 1001,2 hPa 0,0 mm 6,5 km/h (2 Bft) N 360 2 min 0 W/m 4,6 C 12,9 C 11,5 km/h (2 Bft)
14/04/2012 17:30 12,4 C 59 % 1001,4 hPa 0,0 mm 4,0 km/h (1 Bft) N 360 2 min 0 W/m 4,6 C 12,4 C 7,2 km/h (2 Bft)
14/04/2012 17:40 12,4 C 59 % 1001,3 hPa 0,0 mm 1,8 km/h (1 Bft) N 360 2 min 0 W/m 4,6 C 12,4 C 2,9 km/h (1 Bft)
14/04/2012 17:50 12,4 C 60 % 1001,2 hPa 0,0 mm 3,2 km/h (1 Bft) O-NO 292 2 min 0 W/m 4,9 C 12,4 C 7,9 km/h (2 Bft)
14/04/2012 18:00 12,5 C 60 % 1001,2 hPa 0,0 mm 3,6 km/h (1 Bft) N 360 2 min 0 W/m 5,0 C 12,5 C 4,0 km/h (1 Bft)
14/04/2012 18:10 12,8 C 61 % 1001,3 hPa 0,0 mm 5,8 km/h (2 Bft) N 360 2 min 0 W/m 5,5 C 12,8 C 13,0 km/h (3 Bft)
14/04/2012 18:20 12,8 C 58 % 1001,3 hPa 0,0 mm 1,1 km/h (1 Bft) N 360 2 min 0 W/m 4,7 C 12,8 C 4,3 km/h (1 Bft)
14/04/2012 18:30 12,9 C 57 % 1001,3 hPa 0,0 mm 2,2 km/h (1 Bft) N 360 2 min 0 W/m 4,6 C 12,9 C 4,0 km/h (1 Bft)
14/04/2012 18:40 12,8 C 56 % 1001,4 hPa 0,0 mm 0,7 km/h (0 Bft) N-NO 337 2 min 0 W/m 4,2 C 12,8 C 4,3 km/h (1 Bft)
14/04/2012 18:50 12,6 C 57 % 1001,5 hPa 0,0 mm 0,0 km/h (0 Bft) N 360 2 min 0 W/m 4,3 C 12,6 C 0,0 km/h (0 Bft)
14/04/2012 19:00 12,4 C 58 % 1001,6 hPa 0,0 mm 8,3 km/h (2 Bft) NE 45 2 min 0 W/m 4,4 C 12,4 C 10,8 km/h (2 Bft)
14/04/2012 19:10 12,3 C 59 % 1001,6 hPa 0,0 mm 0,0 km/h (0 Bft) N 360 2 min 0 W/m 4,5 C 12,3 C 3,6 km/h (1 Bft)
14/04/2012 19:20 12,3 C 59 % 1001,6 hPa 0,0 mm 1,8 km/h (1 Bft) N-NE 22 2 min 0 W/m 4,5 C 12,3 C 4,0 km/h (1 Bft)
14/04/2012 19:30 12,3 C 59 % 1001,6 hPa 0,0 mm 9,4 km/h (2 Bft) N 360 2 min 0 W/m 4,5 C 12,3 C 16,6 km/h (3 Bft)
14/04/2012 19:40 12,2 C 59 % 1001,8 hPa 0,0 mm 0,0 km/h (0 Bft) N 360 2 min 0 W/m 4,4 C 12,2 C 0,0 km/h (0 Bft)
14/04/2012 19:50 12,0 C 60 % 1001,7 hPa 0,0 mm 3,6 km/h (1 Bft) N 360 2 min 0 W/m 4,5 C 12,0 C 9,0 km/h (2 Bft)
14/04/2012 20:00 11,7 C 61 % 1001,8 hPa 0,0 mm 13,3 km/h (3 Bft) N 360 2 min 0 W/m 4,4 C 11,7 C 17,6 km/h (3 Bft)
14/04/2012 20:10 11,2 C 63 % 1001,9 hPa 0,0 mm 7,9 km/h (2 Bft) N-NE 22 2 min 0 W/m 4,4 C 11,2 C 8,6 km/h (2 Bft)
14/04/2012 20:20 10,8 C 64 % 1002,1 hPa 0,0 mm 0,4 km/h (0 Bft) N 360 2 min 0 W/m 4,3 C 10,8 C 3,2 km/h (1 Bft)
14/04/2012 20:30 10,3 C 66 % 1002,3 hPa 0,0 mm 1,4 km/h (1 Bft) N 360 2 min 0 W/m 4,2 C 10,3 C 3,2 km/h (1 Bft)
14/04/2012 20:40 9,8 C 67 % 1002,4 hPa 0,0 mm 1,4 km/h (1 Bft) N 360 0 min 0 W/m 4,0 C 9,8 C 7,2 km/h (2 Bft)
14/04/2012 20:50 9,4 C 68 % 1002,6 hPa 0,0 mm 0,0 km/h (0 Bft) N 360 0 min 0 W/m 3,8 C 9,4 C 0,0 km/h (0 Bft)
14/04/2012 21:00 9,1 C 69 % 1002,7 hPa 0,0 mm 1,1 km/h (1 Bft) N-NO 337 0 min 0 W/m 3,7 C 9,1 C 1,1 km/h (1 Bft)
14/04/2012 21:10 8,8 C 70 % 1002,8 hPa 0,0 mm 0,4 km/h (0 Bft) N-NO 337 0 min 0 W/m 3,6 C 8,8 C 3,6 km/h (1 Bft)
14/04/2012 21:20 8,6 C 71 % 1002,9 hPa 0,0 mm 0,0 km/h (0 Bft) N 360 0 min 0 W/m 3,6 C 8,6 C 0,0 km/h (0 Bft)
14/04/2012 21:30 8,4 C 72 % 1003,1 hPa 0,0 mm 0,0 km/h (0 Bft) N-NE 22 0 min 0 W/m 3,7 C 8,4 C 0,0 km/h (0 Bft)
14/04/2012 21:40 8,4 C 72 % 1003,3 hPa 0,0 mm 0,0 km/h (0 Bft) N-NE 22 0 min 0 W/m 3,7 C 8,4 C 0,0 km/h (0 Bft)
14/04/2012 21:50 8,3 C 73 % 1003,3 hPa 0,0 mm 0,0 km/h (0 Bft) N 360 0 min 0 W/m 3,8 C 8,3 C 0,0 km/h (0 Bft)
14/04/2012 22:00 8,2 C 74 % 1003,4 hPa 0,0 mm 0,0 km/h (0 Bft) N-NE 22 0 min 0 W/m 3,8 C 8,2 C 0,0 km/h (0 Bft)
14/04/2012 22:10 8,1 C 75 % 1003,5 hPa 0,0 mm 0,0 km/h (0 Bft) N-NE 22 0 min 0 W/m 3,9 C 8,1 C 0,0 km/h (0 Bft)
14/04/2012 22:20 8,0 C 75 % 1003,6 hPa 0,0 mm 0,0 km/h (0 Bft) N 360 0 min 0 W/m 3,8 C 8,0 C 0,0 km/h (0 Bft)
14/04/2012 22:30 7,9 C 75 % 1003,6 hPa 0,0 mm 0,0 km/h (0 Bft) N-NE 22 0 min 0 W/m 3,7 C 7,9 C 0,0 km/h (0 Bft)
14/04/2012 22:40 7,9 C 76 % 1003,7 hPa 0,0 mm 0,0 km/h (0 Bft) N-NE 22 0 min 0 W/m 3,9 C 7,9 C 0,0 km/h (0 Bft)
14/04/2012 22:50 7,9 C 76 % 1003,8 hPa 0,0 mm 0,7 km/h (0 Bft) N-NE 22 0 min 0 W/m 3,9 C 7,9 C 0,7 km/h (0 Bft)
14/04/2012 23:00 7,9 C 77 % 1003,8 hPa 0,0 mm 0,0 km/h (0 Bft) N-NE 22 0 min 0 W/m 4,1 C 7,9 C 0,0 km/h (0 Bft)
14/04/2012 23:10 7,8 C 77 % 1003,9 hPa 0,0 mm 0,0 km/h (0 Bft) N-NO 337 0 min 0 W/m 4,0 C 7,8 C 0,0 km/h (0 Bft)
14/04/2012 23:20 7,6 C 77 % 1004,0 hPa 0,0 mm 0,7 km/h (0 Bft) NO 315 0 min 0 W/m 3,8 C 7,6 C 4,0 km/h (1 Bft)
14/04/2012 23:30 7,3 C 77 % 1004,0 hPa 0,0 mm 0,0 km/h (0 Bft) NO 315 0 min 0 W/m 3,5 C 7,3 C 0,0 km/h (0 Bft)
14/04/2012 23:40 6,9 C 78 % 1004,1 hPa 0,0 mm 0,0 km/h (0 Bft) N-NO 337 0 min 0 W/m 3,3 C 6,9 C 0,0 km/h (0 Bft)
14/04/2012 23:50 6,6 C 78 % 1004,0 hPa 0,0 mm 0,7 km/h (0 Bft) N-NE 22 0 min 0 W/m 3,0 C 6,6 C 2,9 km/h (1 Bft)
_ Min-Heure 07:50 15:50 16:30 - 23:40 - - - - 07:40 07:30 23:40
Minimum _ 1,3 C 45 % 1001,0 hPa - 0,0 km/h (0 Bft) - - - - -0,2 C -0,1 C 0,0 km/h (0 Bft)
_ Max-Heure 16:20 10:30 23:40 23:50 20:00 - - 20:30 23:50 11:40 16:20 20:00
Maximum _ 15,9 C 93 % 1004,1 hPa 0,0 mm 13,3 km/h
N (3 Bft)
- - 2 min 0 W/m 7,7 C 15,9 C 17,6 km/h
N (3 Bft)
Moyenne _ 8,2 C 75 % 1002,3 hPa #0,0 mm 1,6 km/h (1 Bft) S-SO - #2:38 h 0 W/m 3,7 C 8,1 C 3,1 km/h (1 Bft)
Saint Bonnet de Bellac- Haute Vienne - France